RBA4251 WSSS-YBRK

Flight info

Callsign RBA4251
Flight time 6h 15m
Altitude 37000
Route DODSO T21 OBDOS M774 KADAR/N0489F390 M774 POVOT/N0484F410 M774 KIKEM A464 IKUMA J61 NOKUN J138 TL W258 LERKI DCT ABVAS
Aircraft B788/H-SDE1E2E3FGHIJ2J3J4J5M1RWXY/LB1D1

Departure

Time 2026-04-26 01:58
Airport Singapore Changi Airport (WSSS)

Arrival

Time 2026-04-26 08:13
Airport Rockhampton Airport (YBRK)
Time Latitude Longitude Altitude Speed Heading
2026-04-26 01:43 1.34717 103.98696 37 ft 0 kts 293°
2026-04-26 01:49 1.34715 103.98699 37 ft 2 kts 292°
2026-04-26 01:50 1.34709 103.98715 34 ft 2 kts 291°
2026-04-26 01:50 1.34704 103.98730 37 ft 2 kts 289°
2026-04-26 01:50 1.34699 103.98746 36 ft 2 kts 283°
2026-04-26 01:50 1.34699 103.98763 36 ft 2 kts 252°
2026-04-26 01:51 1.34708 103.98772 35 ft 1 kts 213°
2026-04-26 01:51 1.34710 103.98772 35 ft 0 kts 211°
2026-04-26 01:51 1.34713 103.98775 34 ft 1 kts 211°
2026-04-26 01:52 1.34717 103.98776 34 ft 0 kts 202°
2026-04-26 01:52 1.34712 103.98774 38 ft 1 kts 203°
2026-04-26 01:53 1.34694 103.98766 38 ft 5 kts 203°
2026-04-26 01:53 1.34636 103.98742 38 ft 13 kts 202°
2026-04-26 01:53 1.34531 103.98703 38 ft 14 kts 183°
2026-04-26 01:53 1.34487 103.98742 38 ft 8 kts 113°
2026-04-26 01:54 1.34456 103.98819 39 ft 16 kts 112°
2026-04-26 01:54 1.34397 103.98922 39 ft 16 kts 153°
2026-04-26 01:54 1.34291 103.98898 39 ft 18 kts 203°
2026-04-26 01:54 1.34152 103.98840 39 ft 25 kts 202°
2026-04-26 01:55 1.33976 103.98766 39 ft 28 kts 202°
2026-04-26 01:55 1.33798 103.98691 38 ft 28 kts 202°
2026-04-26 01:55 1.33624 103.98618 38 ft 28 kts 203°
2026-04-26 01:55 1.33426 103.98536 38 ft 32 kts 202°
2026-04-26 01:56 1.33232 103.98454 38 ft 29 kts 202°
2026-04-26 01:56 1.33050 103.98378 38 ft 27 kts 203°
2026-04-26 01:56 1.32947 103.98386 38 ft 13 kts 115°
2026-04-26 01:56 1.32914 103.98465 38 ft 11 kts 104°
2026-04-26 01:57 1.32927 103.98520 38 ft 6 kts 35°
2026-04-26 01:57 1.32984 103.98544 39 ft 20 kts 22°
2026-04-26 01:57 1.33288 103.98672 37 ft 78 kts 22°
2026-04-26 01:57 1.33974 103.98961 39 ft 134 kts 23°
2026-04-26 01:58 1.34962 103.99380 274 ft 162 kts 23°
2026-04-26 01:58 1.36015 103.99823 1018 ft 168 kts 23°
2026-04-26 01:58 1.37102 104.00283 1829 ft 173 kts 23°
2026-04-26 01:58 1.38305 104.00788 2280 ft 201 kts 24°
2026-04-26 01:59 1.39682 104.01371 2749 ft 229 kts 23°
2026-04-26 01:59 1.41253 104.02036 3253 ft 257 kts 24°
2026-04-26 01:59 1.42906 104.02734 4324 ft 259 kts 24°
2026-04-26 01:59 1.44577 104.03439 5349 ft 263 kts 24°
2026-04-26 02:00 1.46196 104.04303 6292 ft 266 kts 43°
2026-04-26 02:00 1.47329 104.05756 7227 ft 267 kts 66°
2026-04-26 02:00 1.47761 104.07559 8153 ft 271 kts 89°
2026-04-26 02:00 1.47385 104.09415 9059 ft 277 kts 111°
2026-04-26 02:01 1.46585 104.11188 9947 ft 282 kts 113°
2026-04-26 02:01 1.45726 104.13007 10444 ft 302 kts 114°
2026-04-26 02:01 1.44790 104.14998 10637 ft 330 kts 114°
2026-04-26 02:01 1.43804 104.17123 10945 ft 349 kts 114°
2026-04-26 02:02 1.42783 104.19326 11852 ft 350 kts 113°
2026-04-26 02:02 1.41755 104.21549 12645 ft 355 kts 113°
2026-04-26 02:02 1.40717 104.23797 13471 ft 358 kts 113°
2026-04-26 02:02 1.39666 104.26069 14217 ft 362 kts 113°
2026-04-26 02:03 1.38603 104.28366 14917 ft 367 kts 113°
2026-04-26 02:03 1.37527 104.30693 15625 ft 371 kts 114°
2026-04-26 02:03 1.36440 104.33044 16314 ft 375 kts 114°
2026-04-26 02:03 1.35339 104.35424 16978 ft 380 kts 114°
2026-04-26 02:04 1.34224 104.37835 17622 ft 384 kts 114°
2026-04-26 02:04 1.33320 104.40345 18227 ft 387 kts 101°
2026-04-26 02:04 1.33061 104.43024 18748 ft 389 kts 89°
2026-04-26 02:04 1.33112 104.45746 19235 ft 394 kts 89°
2026-04-26 02:05 1.33185 104.48491 19786 ft 397 kts 88°
2026-04-26 02:05 1.33261 104.51255 20318 ft 400 kts 88°
2026-04-26 02:05 1.33326 104.54044 20839 ft 403 kts 89°
2026-04-26 02:05 1.33389 104.56857 21350 ft 406 kts 88°
2026-04-26 02:06 1.33457 104.59691 21836 ft 410 kts 88°
2026-04-26 02:06 1.33528 104.62549 22309 ft 413 kts 88°
2026-04-26 02:06 1.33598 104.65430 22782 ft 416 kts 88°
2026-04-26 02:06 1.33666 104.68335 23247 ft 419 kts 88°
2026-04-26 02:07 1.33736 104.71259 23653 ft 423 kts 88°
2026-04-26 02:07 1.33807 104.74202 24048 ft 425 kts 88°
2026-04-26 02:07 1.33878 104.77162 24437 ft 427 kts 88°
2026-04-26 02:07 1.33949 104.80138 24814 ft 430 kts 88°
2026-04-26 02:08 1.34021 104.83130 25174 ft 432 kts 88°
2026-04-26 02:08 1.34093 104.86140 25554 ft 434 kts 88°
2026-04-26 02:08 1.34165 104.89164 25909 ft 437 kts 88°
2026-04-26 02:08 1.34238 104.92206 26282 ft 439 kts 88°
2026-04-26 02:09 1.34312 104.95264 26640 ft 441 kts 88°
2026-04-26 02:09 1.34386 104.98340 26994 ft 444 kts 88°
2026-04-26 02:09 1.34460 105.01431 27342 ft 446 kts 88°
2026-04-26 02:09 1.34535 105.04539 27693 ft 449 kts 88°
2026-04-26 02:10 1.34610 105.07666 28043 ft 451 kts 88°
2026-04-26 02:10 1.34685 105.10806 28376 ft 454 kts 88°
2026-04-26 02:10 1.34761 105.13970 28713 ft 456 kts 88°
2026-04-26 02:10 1.34837 105.17147 29041 ft 459 kts 88°
2026-04-26 02:11 1.34913 105.20338 29376 ft 461 kts 88°
2026-04-26 02:11 1.34990 105.23551 29693 ft 463 kts 88°
2026-04-26 02:11 1.35068 105.26780 29993 ft 466 kts 88°
2026-04-26 02:11 1.35145 105.30026 30258 ft 468 kts 88°
2026-04-26 02:12 1.35223 105.33285 30517 ft 471 kts 88°
2026-04-26 02:12 1.35301 105.36565 30754 ft 473 kts 88°
2026-04-26 02:12 1.35380 105.39861 30996 ft 476 kts 88°
2026-04-26 02:12 1.35458 105.43129 31227 ft 478 kts 88°
2026-04-26 02:13 1.35537 105.46456 31463 ft 480 kts 88°
2026-04-26 02:13 1.35617 105.49799 31703 ft 482 kts 88°
2026-04-26 02:13 1.35697 105.53158 31912 ft 485 kts 88°
2026-04-26 02:13 1.35777 105.56534 32134 ft 487 kts 88°
2026-04-26 02:14 1.35857 105.59921 32352 ft 489 kts 88°
2026-04-26 02:14 1.35938 105.63323 32565 ft 491 kts 88°
2026-04-26 02:14 1.36020 105.66742 32771 ft 493 kts 89°
2026-04-26 02:14 1.36101 105.70171 32977 ft 495 kts 89°
2026-04-26 02:15 1.36183 105.73614 33191 ft 497 kts 89°
2026-04-26 02:15 1.36265 105.77069 33445 ft 497 kts 89°
2026-04-26 02:15 1.36346 105.80523 33741 ft 497 kts 89°
2026-04-26 02:15 1.36428 105.83971 34027 ft 496 kts 89°
2026-04-26 02:16 1.36510 105.87420 34298 ft 496 kts 89°
2026-04-26 02:16 1.36592 105.90858 34582 ft 495 kts 89°
2026-04-26 02:16 1.36673 105.94291 34854 ft 494 kts 89°
2026-04-26 02:16 1.36754 105.97722 35127 ft 493 kts 89°
2026-04-26 02:17 1.36836 106.01145 35412 ft 492 kts 89°
2026-04-26 02:17 1.36916 106.04560 35691 ft 491 kts 89°
2026-04-26 02:17 1.36997 106.07972 35964 ft 491 kts 89°
2026-04-26 02:17 1.37078 106.11376 36245 ft 489 kts 89°
2026-04-26 02:18 1.37136 106.14771 36519 ft 488 kts 93°
2026-04-26 02:18 1.36731 106.18127 36783 ft 487 kts 104°
2026-04-26 02:18 1.35713 106.21358 36932 ft 489 kts 114°
2026-04-26 02:19 1.31944 106.27017 36945 ft 493 kts 135°
2026-04-26 02:19 1.26582 106.31262 36926 ft 491 kts 143°
2026-04-26 02:20 1.21069 106.35263 36924 ft 489 kts 143°
2026-04-26 02:20 1.15579 106.39275 36928 ft 489 kts 143°
2026-04-26 02:21 1.10081 106.43279 36927 ft 489 kts 143°
2026-04-26 02:21 1.04586 106.47286 36927 ft 489 kts 143°
2026-04-26 02:22 0.99090 106.51292 36927 ft 489 kts 143°
2026-04-26 02:22 0.93596 106.55297 36930 ft 489 kts 143°
2026-04-26 02:23 0.88096 106.59306 36924 ft 490 kts 143°
2026-04-26 02:23 0.82592 106.63317 36929 ft 490 kts 143°
2026-04-26 02:24 0.77091 106.67327 36927 ft 489 kts 143°
2026-04-26 02:24 0.71630 106.71307 36928 ft 489 kts 143°
2026-04-26 02:25 0.66137 106.75310 36930 ft 488 kts 143°
2026-04-26 02:25 0.60652 106.79308 36925 ft 488 kts 143°
2026-04-26 02:26 0.55169 106.83304 36928 ft 488 kts 143°
2026-04-26 02:26 0.49679 106.87305 36929 ft 489 kts 143°
2026-04-26 02:27 0.44180 106.91316 36926 ft 489 kts 141°
2026-04-26 02:27 0.41666 106.93592 36947 ft 488 kts 130°
2026-04-26 02:27 0.39620 106.96284 36944 ft 487 kts 123°
2026-04-26 02:28 0.35865 107.01925 36926 ft 488 kts 123°
2026-04-26 02:28 0.32115 107.07568 36929 ft 487 kts 123°
2026-04-26 02:29 0.28366 107.13197 36928 ft 486 kts 123°
2026-04-26 02:29 0.24626 107.18824 36929 ft 486 kts 123°
2026-04-26 02:30 0.20881 107.24450 36930 ft 486 kts 123°
2026-04-26 02:30 0.17143 107.30070 36925 ft 485 kts 123°
2026-04-26 02:31 0.13403 107.35691 36924 ft 486 kts 123°
2026-04-26 02:31 0.09662 107.41315 36929 ft 486 kts 123°
2026-04-26 02:32 0.05944 107.46903 36926 ft 486 kts 123°
2026-04-26 02:32 0.02201 107.52530 36924 ft 487 kts 123°
2026-04-26 02:33 -0.01549 107.58167 36924 ft 487 kts 123°
2026-04-26 02:33 -0.05298 107.63801 36925 ft 487 kts 123°
2026-04-26 02:34 -0.09043 107.69430 36922 ft 487 kts 123°
2026-04-26 02:34 -0.12162 107.74120 36923 ft 488 kts 123°
2026-04-26 02:35 -0.16517 107.80743 36921 ft 488 kts 123°
2026-04-26 02:35 -0.19625 107.85448 36926 ft 488 kts 123°
2026-04-26 02:36 -0.23359 107.91113 36925 ft 488 kts 123°
2026-04-26 02:36 -0.27095 107.96780 36922 ft 489 kts 123°
2026-04-26 02:37 -0.30839 108.02459 36924 ft 489 kts 123°
2026-04-26 02:37 -0.34582 108.08136 36919 ft 489 kts 123°
2026-04-26 02:38 -0.38326 108.13815 36920 ft 489 kts 123°
2026-04-26 02:38 -0.42069 108.19493 36922 ft 489 kts 123°
2026-04-26 02:39 -0.45810 108.25167 36922 ft 489 kts 123°
2026-04-26 02:39 -0.49554 108.30847 36920 ft 490 kts 123°
2026-04-26 02:40 -0.53305 108.36537 36916 ft 491 kts 123°
2026-04-26 02:40 -0.57059 108.42232 36920 ft 491 kts 123°
2026-04-26 02:41 -0.60811 108.47924 36918 ft 490 kts 123°
2026-04-26 02:41 -0.64558 108.53613 36922 ft 490 kts 123°
2026-04-26 02:42 -0.68278 108.59313 36922 ft 489 kts 123°
2026-04-26 02:42 -0.71982 108.64964 36916 ft 490 kts 123°
2026-04-26 02:43 -0.77568 108.73503 36918 ft 489 kts 123°
2026-04-26 02:43 -0.81288 108.79184 36919 ft 488 kts 123°
2026-04-26 02:44 -0.85002 108.84861 36917 ft 488 kts 123°
2026-04-26 02:44 -0.88723 108.90545 36916 ft 489 kts 123°
2026-04-26 02:45 -0.92462 108.96226 36919 ft 489 kts 123°
2026-04-26 02:45 -0.96194 109.01909 36914 ft 489 kts 123°
2026-04-26 02:46 -0.99921 109.07580 36916 ft 488 kts 123°
2026-04-26 02:46 -1.03650 109.13248 36919 ft 488 kts 123°
2026-04-26 02:47 -1.07392 109.18905 36915 ft 487 kts 123°
2026-04-26 02:47 -1.11125 109.24566 36917 ft 491 kts 123°
2026-04-26 02:48 -1.14921 109.30315 36917 ft 500 kts 123°
2026-04-26 02:48 -1.18767 109.36142 36918 ft 504 kts 123°
2026-04-26 02:49 -1.22622 109.41984 36915 ft 503 kts 123°
2026-04-26 02:49 -1.26465 109.47806 36914 ft 501 kts 123°
2026-04-26 02:50 -1.30304 109.53625 36913 ft 502 kts 123°
2026-04-26 02:50 -1.34147 109.59449 36912 ft 502 kts 123°
2026-04-26 02:51 -1.37993 109.65277 36915 ft 503 kts 123°
2026-04-26 02:51 -1.41841 109.71109 36915 ft 503 kts 123°
2026-04-26 02:52 -1.45692 109.76946 36914 ft 502 kts 123°
2026-04-26 02:52 -1.49535 109.82772 36914 ft 502 kts 123°
2026-04-26 02:53 -1.53381 109.88602 36912 ft 503 kts 123°
2026-04-26 02:53 -1.57203 109.94398 36910 ft 503 kts 123°
2026-04-26 02:54 -1.61053 110.00234 36916 ft 502 kts 123°
2026-04-26 02:54 -1.64899 110.06067 36912 ft 503 kts 123°
2026-04-26 02:55 -1.68749 110.11904 36913 ft 503 kts 123°
2026-04-26 02:55 -1.72599 110.17741 36912 ft 503 kts 123°
2026-04-26 02:56 -1.76446 110.23574 36912 ft 502 kts 123°
2026-04-26 02:56 -1.80288 110.29400 36915 ft 502 kts 123°
2026-04-26 02:57 -1.84129 110.35224 36913 ft 502 kts 123°
2026-04-26 02:57 -1.87970 110.41049 36914 ft 502 kts 123°
2026-04-26 02:58 -1.91813 110.46877 36913 ft 502 kts 123°
2026-04-26 02:58 -1.95655 110.52705 36916 ft 502 kts 123°
2026-04-26 02:59 -1.99494 110.58529 36915 ft 502 kts 123°
2026-04-26 02:59 -2.03331 110.64350 36914 ft 501 kts 123°
2026-04-26 03:00 -2.07169 110.70172 36916 ft 501 kts 123°
2026-04-26 03:00 -2.11002 110.75990 36912 ft 501 kts 123°
2026-04-26 03:01 -2.14834 110.81805 36914 ft 501 kts 123°
2026-04-26 03:01 -2.18669 110.87625 36913 ft 501 kts 123°
2026-04-26 03:02 -2.22502 110.93444 36911 ft 501 kts 123°
2026-04-26 03:02 -2.26306 110.99227 36906 ft 501 kts 123°
2026-04-26 03:03 -2.30116 111.05053 36908 ft 500 kts 123°
2026-04-26 03:03 -2.33929 111.10863 36909 ft 499 kts 123°
2026-04-26 03:04 -2.37734 111.16675 36912 ft 500 kts 123°
2026-04-26 03:04 -2.41542 111.22486 36907 ft 500 kts 123°
2026-04-26 03:05 -2.45350 111.28301 36903 ft 500 kts 122°
2026-04-26 03:05 -2.49159 111.34115 36905 ft 500 kts 122°
2026-04-26 03:06 -2.52976 111.39943 36909 ft 501 kts 122°
2026-04-26 03:06 -2.56796 111.45777 36904 ft 501 kts 122°
2026-04-26 03:07 -2.60610 111.51603 36905 ft 501 kts 122°
2026-04-26 03:07 -2.64427 111.57433 36904 ft 501 kts 122°
2026-04-26 03:08 -2.68245 111.63266 36908 ft 501 kts 122°
2026-04-26 03:08 -2.72023 111.69124 36910 ft 499 kts 117°
2026-04-26 03:09 -2.75230 111.75294 36908 ft 501 kts 116°
2026-04-26 03:09 -2.78436 111.81473 36905 ft 500 kts 116°
2026-04-26 03:10 -2.81635 111.87644 36904 ft 500 kts 116°
2026-04-26 03:10 -2.84842 111.93829 36901 ft 502 kts 116°
2026-04-26 03:11 -2.88058 112.00033 36904 ft 503 kts 116°
2026-04-26 03:11 -2.91253 112.06200 36902 ft 502 kts 116°
2026-04-26 03:12 -2.94463 112.12394 36902 ft 502 kts 116°
2026-04-26 03:12 -2.97671 112.18586 36904 ft 501 kts 116°
2026-04-26 03:13 -3.00876 112.24773 36905 ft 500 kts 116°
2026-04-26 03:13 -3.04074 112.30947 36904 ft 499 kts 116°
2026-04-26 03:14 -3.07163 112.37170 36904 ft 500 kts 115°
2026-04-26 03:14 -3.10243 112.43405 36904 ft 500 kts 116°
2026-04-26 03:15 -3.13338 112.49621 36901 ft 498 kts 115°
2026-04-26 03:15 -3.16407 112.55835 36899 ft 499 kts 116°
2026-04-26 03:16 -3.19499 112.62058 36901 ft 500 kts 115°
2026-04-26 03:16 -3.22583 112.68293 36896 ft 499 kts 115°
2026-04-26 03:17 -3.25669 112.74513 36896 ft 499 kts 115°
2026-04-26 03:17 -3.28752 112.80742 36896 ft 500 kts 115°
2026-04-26 03:18 -3.31841 112.86978 36900 ft 500 kts 115°
2026-04-26 03:18 -3.34929 112.93216 36897 ft 501 kts 115°
2026-04-26 03:19 -3.38021 112.99460 36895 ft 501 kts 116°
2026-04-26 03:19 -3.41090 113.05660 36895 ft 500 kts 116°
2026-04-26 03:20 -3.44180 113.11905 36892 ft 501 kts 116°
2026-04-26 03:20 -3.47269 113.18149 36894 ft 500 kts 116°
2026-04-26 03:21 -3.50355 113.24387 36892 ft 500 kts 116°
2026-04-26 03:21 -3.53441 113.30626 36895 ft 500 kts 116°
2026-04-26 03:22 -3.56530 113.36874 36897 ft 501 kts 116°
2026-04-26 03:22 -3.59621 113.43125 36894 ft 501 kts 116°
2026-04-26 03:23 -3.62708 113.49371 36894 ft 500 kts 116°
2026-04-26 03:23 -3.65294 113.54605 36895 ft 501 kts 116°
2026-04-26 03:24 -3.68381 113.60853 36894 ft 501 kts 116°
2026-04-26 03:24 -3.71447 113.67060 36892 ft 500 kts 116°
2026-04-26 03:25 -3.74534 113.73310 36892 ft 501 kts 116°
2026-04-26 03:25 -3.77623 113.79566 36890 ft 501 kts 115°
2026-04-26 03:26 -3.80711 113.85821 36891 ft 501 kts 115°
2026-04-26 03:26 -3.83797 113.92074 36888 ft 501 kts 116°
2026-04-26 03:27 -3.86884 113.98330 36888 ft 501 kts 116°
2026-04-26 03:27 -3.89969 114.04584 36888 ft 501 kts 116°
2026-04-26 03:28 -3.93054 114.10840 36888 ft 501 kts 116°
2026-04-26 03:28 -3.96142 114.17101 36889 ft 501 kts 115°
2026-04-26 03:29 -3.99224 114.23353 36889 ft 501 kts 115°
2026-04-26 03:29 -4.02307 114.29609 36889 ft 501 kts 115°
2026-04-26 03:30 -4.05390 114.35865 36893 ft 501 kts 115°
2026-04-26 03:30 -4.08472 114.42120 36891 ft 501 kts 115°
2026-04-26 03:31 -4.11553 114.48375 36892 ft 500 kts 115°
2026-04-26 03:31 -4.14610 114.54584 36893 ft 500 kts 115°
2026-04-26 03:32 -4.17687 114.60834 36891 ft 501 kts 115°
2026-04-26 03:32 -4.20766 114.67090 36889 ft 500 kts 115°
2026-04-26 03:33 -4.23840 114.73336 36892 ft 500 kts 115°
2026-04-26 03:33 -4.26914 114.79586 36890 ft 500 kts 115°
2026-04-26 03:34 -4.29989 114.85838 36902 ft 501 kts 115°
2026-04-26 03:34 -4.31529 114.88969 37109 ft 501 kts 115°
2026-04-26 03:34 -4.33065 114.92094 37320 ft 500 kts 115°
2026-04-26 03:35 -4.34604 114.95222 37519 ft 500 kts 116°
2026-04-26 03:35 -4.36185 114.98325 37717 ft 500 kts 117°
2026-04-26 03:35 -4.37805 115.01408 37913 ft 500 kts 116°
2026-04-26 03:35 -4.39403 115.04497 38125 ft 499 kts 116°
2026-04-26 03:36 -4.40974 115.07603 38336 ft 499 kts 116°
2026-04-26 03:36 -4.42549 115.10699 38523 ft 499 kts 116°
2026-04-26 03:36 -4.44143 115.13787 38696 ft 499 kts 116°
2026-04-26 03:36 -4.45733 115.16872 38858 ft 498 kts 116°
2026-04-26 03:37 -4.48906 115.23087 38873 ft 502 kts 116°
2026-04-26 03:37 -4.52085 115.29281 38874 ft 498 kts 116°
2026-04-26 03:38 -4.55239 115.35446 38873 ft 497 kts 116°
2026-04-26 03:38 -4.58395 115.41606 38872 ft 497 kts 116°
2026-04-26 03:39 -4.61533 115.47738 38874 ft 498 kts 116°
2026-04-26 03:39 -4.64696 115.53918 38875 ft 499 kts 116°
2026-04-26 03:40 -4.67864 115.60111 38874 ft 499 kts 116°
2026-04-26 03:40 -4.71036 115.66311 38872 ft 500 kts 116°
2026-04-26 03:41 -4.74211 115.72521 38869 ft 501 kts 116°
2026-04-26 03:41 -4.77387 115.78733 38870 ft 501 kts 116°
2026-04-26 03:42 -4.80563 115.84947 38873 ft 500 kts 116°
2026-04-26 03:42 -4.83737 115.91160 38877 ft 501 kts 116°
2026-04-26 03:43 -4.86914 115.97380 38874 ft 501 kts 117°
2026-04-26 03:43 -4.90093 116.03604 38873 ft 502 kts 117°
2026-04-26 03:44 -4.93274 116.09835 38877 ft 502 kts 117°
2026-04-26 03:44 -4.96453 116.16065 38875 ft 502 kts 117°
2026-04-26 03:45 -4.99630 116.22291 38872 ft 501 kts 117°
2026-04-26 03:45 -5.02803 116.28512 38873 ft 500 kts 117°
2026-04-26 03:46 -5.05970 116.34722 38874 ft 500 kts 117°
2026-04-26 03:47 -5.10693 116.43986 38874 ft 499 kts 116°
2026-04-26 03:47 -5.13851 116.50184 38870 ft 499 kts 116°
2026-04-26 03:48 -5.17002 116.56370 38870 ft 497 kts 116°
2026-04-26 03:48 -5.20147 116.62545 38872 ft 497 kts 116°
2026-04-26 03:49 -5.23289 116.68717 38871 ft 496 kts 116°
2026-04-26 03:49 -5.26423 116.74874 38871 ft 494 kts 116°
2026-04-26 03:50 -5.29541 116.81002 38870 ft 493 kts 116°
2026-04-26 03:50 -5.32662 116.87138 38865 ft 494 kts 116°
2026-04-26 03:51 -5.35783 116.93274 38866 ft 494 kts 116°
2026-04-26 03:51 -5.38903 116.99410 38866 ft 494 kts 116°
2026-04-26 03:52 -5.42024 117.05552 38867 ft 494 kts 116°
2026-04-26 03:52 -5.45147 117.11699 38871 ft 494 kts 117°
2026-04-26 03:53 -5.48269 117.17845 38870 ft 494 kts 117°
2026-04-26 03:53 -5.51392 117.23997 38873 ft 494 kts 117°
2026-04-26 03:54 -5.54516 117.30150 38869 ft 495 kts 117°
2026-04-26 03:54 -5.57638 117.36301 38868 ft 495 kts 117°
2026-04-26 03:55 -5.60739 117.42414 38866 ft 494 kts 117°
2026-04-26 03:55 -5.63854 117.48558 38865 ft 494 kts 117°
2026-04-26 03:56 -5.66976 117.54714 38868 ft 495 kts 117°
2026-04-26 03:56 -5.70101 117.60881 38870 ft 495 kts 117°
2026-04-26 03:57 -5.73225 117.67047 38869 ft 496 kts 117°
2026-04-26 03:57 -5.76350 117.73216 38872 ft 495 kts 117°
2026-04-26 03:58 -5.79472 117.79382 38870 ft 495 kts 117°
2026-04-26 03:58 -5.82595 117.85552 38868 ft 496 kts 117°
2026-04-26 03:59 -5.85722 117.91732 38867 ft 496 kts 117°
2026-04-26 03:59 -5.88848 117.97912 38868 ft 496 kts 117°
2026-04-26 04:00 -5.91972 118.04090 38869 ft 496 kts 117°
2026-04-26 04:00 -5.95092 118.10263 38869 ft 495 kts 117°
2026-04-26 04:01 -5.98185 118.16382 38871 ft 494 kts 117°
2026-04-26 04:01 -6.01297 118.22543 38874 ft 495 kts 117°
2026-04-26 04:02 -6.04413 118.28712 38879 ft 495 kts 117°
2026-04-26 04:02 -6.07524 118.34875 38874 ft 494 kts 117°
2026-04-26 04:03 -6.10631 118.41032 38875 ft 494 kts 117°
2026-04-26 04:03 -6.13738 118.47191 38877 ft 494 kts 117°
2026-04-26 04:04 -6.16843 118.53348 38878 ft 494 kts 117°
2026-04-26 04:04 -6.19945 118.59501 38880 ft 494 kts 117°
2026-04-26 04:05 -6.23047 118.65656 38882 ft 494 kts 117°
2026-04-26 04:05 -6.26151 118.71817 38885 ft 494 kts 117°
2026-04-26 04:06 -6.29255 118.77980 38884 ft 495 kts 117°
2026-04-26 04:06 -6.32363 118.84154 38883 ft 495 kts 117°
2026-04-26 04:07 -6.35472 118.90333 38883 ft 495 kts 117°
2026-04-26 04:07 -6.38578 118.96506 38881 ft 494 kts 117°
2026-04-26 04:08 -6.41679 119.02672 38882 ft 494 kts 116°
2026-04-26 04:08 -6.44776 119.08833 38884 ft 494 kts 116°
2026-04-26 04:09 -6.47875 119.14999 38884 ft 494 kts 116°
2026-04-26 04:09 -6.50976 119.21172 38881 ft 494 kts 116°
2026-04-26 04:10 -6.54076 119.27346 38884 ft 495 kts 116°
2026-04-26 04:10 -6.57176 119.33520 38883 ft 494 kts 116°
2026-04-26 04:11 -6.60253 119.39653 38881 ft 494 kts 116°
2026-04-26 04:11 -6.63352 119.45830 38881 ft 495 kts 116°
2026-04-26 04:12 -6.66460 119.52029 38883 ft 497 kts 116°
2026-04-26 04:12 -6.69566 119.58225 38882 ft 495 kts 116°
2026-04-26 04:13 -6.72666 119.64413 38883 ft 496 kts 116°
2026-04-26 04:13 -6.75770 119.70610 38882 ft 496 kts 116°
2026-04-26 04:14 -6.78347 119.75757 38879 ft 496 kts 116°
2026-04-26 04:14 -6.81448 119.81953 38881 ft 495 kts 116°
2026-04-26 04:15 -6.84548 119.88149 38880 ft 496 kts 116°
2026-04-26 04:15 -6.87643 119.94337 38881 ft 494 kts 116°
2026-04-26 04:16 -6.90732 120.00517 38879 ft 494 kts 116°
2026-04-26 04:16 -6.93816 120.06697 38880 ft 494 kts 116°
2026-04-26 04:17 -6.96884 120.12889 38878 ft 495 kts 116°
2026-04-26 04:17 -6.99966 120.19088 38881 ft 496 kts 116°
2026-04-26 04:18 -7.03051 120.25309 38880 ft 497 kts 116°
2026-04-26 04:18 -7.06141 120.31536 38880 ft 497 kts 115°
2026-04-26 04:19 -7.09230 120.37765 38886 ft 498 kts 115°
2026-04-26 04:19 -7.12320 120.43998 38888 ft 497 kts 115°
2026-04-26 04:20 -7.15403 120.50221 38883 ft 496 kts 115°
2026-04-26 04:20 -7.18466 120.56405 38882 ft 497 kts 115°
2026-04-26 04:21 -7.21548 120.62629 38883 ft 497 kts 115°
2026-04-26 04:21 -7.24631 120.68859 38887 ft 497 kts 115°
2026-04-26 04:22 -7.27715 120.75093 38885 ft 497 kts 115°
2026-04-26 04:22 -7.30801 120.81334 38889 ft 498 kts 115°
2026-04-26 04:23 -7.33886 120.87576 38890 ft 498 kts 115°
2026-04-26 04:23 -7.36971 120.93819 38889 ft 498 kts 115°
2026-04-26 04:24 -7.40057 121.00069 38876 ft 499 kts 115°
2026-04-26 04:24 -7.43145 121.06323 38872 ft 498 kts 115°
2026-04-26 04:25 -7.46229 121.12573 38874 ft 498 kts 115°
2026-04-26 04:25 -7.49290 121.18780 38874 ft 498 kts 115°
2026-04-26 04:26 -7.52371 121.25028 38873 ft 498 kts 115°
2026-04-26 04:26 -7.55449 121.31273 38874 ft 497 kts 115°
2026-04-26 04:27 -7.58524 121.37516 38874 ft 498 kts 115°
2026-04-26 04:27 -7.61602 121.43768 38874 ft 498 kts 115°
2026-04-26 04:28 -7.64679 121.50018 38874 ft 498 kts 115°
2026-04-26 04:28 -7.67757 121.56276 38871 ft 498 kts 115°
2026-04-26 04:29 -7.70834 121.62534 38872 ft 499 kts 115°
2026-04-26 04:29 -7.73913 121.68797 38872 ft 499 kts 115°
2026-04-26 04:30 -7.76995 121.75070 38872 ft 499 kts 115°
2026-04-26 04:30 -7.80078 121.81347 38875 ft 500 kts 115°
2026-04-26 04:31 -7.83163 121.87632 38875 ft 500 kts 115°
2026-04-26 04:31 -7.86248 121.93920 38878 ft 500 kts 115°
2026-04-26 04:32 -7.89336 122.00217 38875 ft 501 kts 115°
2026-04-26 04:32 -7.92429 122.06526 38871 ft 502 kts 115°
2026-04-26 04:33 -7.95502 122.12796 38874 ft 503 kts 115°
2026-04-26 04:33 -7.98601 122.19125 38873 ft 503 kts 115°
2026-04-26 04:34 -8.01702 122.25460 38874 ft 504 kts 115°
2026-04-26 04:34 -8.04805 122.31801 38875 ft 504 kts 115°
2026-04-26 04:35 -8.07907 122.38143 38876 ft 504 kts 115°
2026-04-26 04:35 -8.11010 122.44490 38880 ft 504 kts 115°
2026-04-26 04:36 -8.14109 122.50832 38878 ft 504 kts 115°
2026-04-26 04:36 -8.17207 122.57176 38875 ft 504 kts 115°
2026-04-26 04:37 -8.20306 122.63525 38874 ft 504 kts 115°
2026-04-26 04:37 -8.23404 122.69874 38875 ft 504 kts 115°
2026-04-26 04:38 -8.26501 122.76225 38876 ft 505 kts 115°
2026-04-26 04:38 -8.29601 122.82584 38877 ft 505 kts 115°
2026-04-26 04:39 -8.32704 122.88953 38877 ft 506 kts 115°
2026-04-26 04:39 -8.35808 122.95327 38880 ft 506 kts 115°
2026-04-26 04:40 -8.38914 123.01707 38876 ft 506 kts 115°
2026-04-26 04:40 -8.41995 123.08039 38876 ft 506 kts 115°
2026-04-26 04:41 -8.45096 123.14418 38877 ft 506 kts 115°
2026-04-26 04:41 -8.48196 123.20795 38878 ft 506 kts 115°
2026-04-26 04:42 -8.51298 123.27182 38878 ft 506 kts 115°
2026-04-26 04:42 -8.54401 123.33571 38880 ft 506 kts 115°
2026-04-26 04:43 -8.57500 123.39956 38872 ft 506 kts 115°
2026-04-26 04:43 -8.60596 123.46341 38873 ft 506 kts 115°
2026-04-26 04:44 -8.63691 123.52724 38874 ft 506 kts 115°
2026-04-26 04:44 -8.66788 123.59115 38874 ft 506 kts 115°
2026-04-26 04:45 -8.69882 123.65503 38872 ft 506 kts 115°
2026-04-26 04:45 -8.72980 123.71902 38866 ft 507 kts 115°
2026-04-26 04:46 -8.76071 123.78290 38865 ft 505 kts 114°
2026-04-26 04:46 -8.79154 123.84667 38865 ft 505 kts 114°
2026-04-26 04:47 -8.82235 123.91040 38864 ft 504 kts 114°
2026-04-26 04:47 -8.85306 123.97397 38864 ft 503 kts 114°
2026-04-26 04:48 -8.89901 124.06916 38863 ft 502 kts 114°
2026-04-26 04:48 -8.92964 124.13263 38859 ft 502 kts 114°
2026-04-26 04:49 -8.96022 124.19607 38862 ft 501 kts 114°
2026-04-26 04:49 -8.99082 124.25954 38863 ft 503 kts 114°
2026-04-26 04:50 -9.02142 124.32307 38866 ft 502 kts 114°
2026-04-26 04:50 -9.05203 124.38665 38867 ft 503 kts 114°
2026-04-26 04:51 -9.08267 124.45033 38867 ft 504 kts 114°
2026-04-26 04:51 -9.11333 124.51408 38870 ft 504 kts 114°
2026-04-26 04:52 -9.14397 124.57782 38877 ft 504 kts 114°
2026-04-26 04:52 -9.17467 124.64171 38877 ft 505 kts 114°
2026-04-26 04:53 -9.20515 124.70520 38884 ft 505 kts 114°
2026-04-26 04:53 -9.23583 124.76913 38887 ft 505 kts 114°
2026-04-26 04:54 -9.26648 124.83303 38890 ft 505 kts 114°
2026-04-26 04:54 -9.29715 124.89700 38898 ft 505 kts 113°
2026-04-26 04:55 -9.32777 124.96090 38898 ft 504 kts 113°
2026-04-26 04:55 -9.35831 125.02467 38900 ft 503 kts 113°
2026-04-26 04:56 -9.38884 125.08848 38900 ft 503 kts 113°
2026-04-26 04:56 -9.41932 125.15220 38896 ft 503 kts 113°
2026-04-26 04:57 -9.44982 125.21598 38896 ft 503 kts 114°
2026-04-26 04:57 -9.48030 125.27979 38892 ft 503 kts 114°
2026-04-26 04:58 -9.51079 125.34364 38889 ft 504 kts 114°
2026-04-26 04:58 -9.54129 125.40754 38889 ft 504 kts 114°
2026-04-26 04:59 -9.57175 125.47139 38886 ft 504 kts 113°
2026-04-26 04:59 -9.60223 125.53533 38889 ft 504 kts 114°
2026-04-26 05:00 -9.63272 125.59932 38890 ft 504 kts 114°
2026-04-26 05:00 -9.66299 125.66289 38891 ft 504 kts 114°
2026-04-26 05:01 -9.69346 125.72692 38888 ft 505 kts 114°
2026-04-26 05:01 -9.72395 125.79103 38892 ft 505 kts 114°
2026-04-26 05:02 -9.75444 125.85517 38893 ft 505 kts 114°
2026-04-26 05:02 -9.78497 125.91942 38879 ft 506 kts 114°
2026-04-26 05:03 -9.81553 125.98378 38879 ft 507 kts 114°
2026-04-26 05:03 -9.84614 126.04829 38884 ft 509 kts 114°
2026-04-26 05:04 -9.87685 126.11305 38891 ft 510 kts 114°
2026-04-26 05:04 -9.90495 126.16574 38889 ft 511 kts 117°
2026-04-26 05:05 -9.93916 126.22903 38889 ft 512 kts 117°
2026-04-26 05:05 -9.97367 126.29227 38888 ft 513 kts 117°
2026-04-26 05:06 -10.00811 126.35576 38890 ft 514 kts 117°
2026-04-26 05:06 -10.04266 126.41932 38890 ft 515 kts 117°
2026-04-26 05:07 -10.07723 126.48301 38892 ft 516 kts 117°
2026-04-26 05:07 -10.11185 126.54683 38890 ft 517 kts 117°
2026-04-26 05:08 -10.14651 126.61074 38888 ft 517 kts 117°
2026-04-26 05:08 -10.18113 126.67465 38889 ft 517 kts 117°
2026-04-26 05:09 -10.21553 126.73815 38893 ft 517 kts 117°
2026-04-26 05:09 -10.25013 126.80208 38887 ft 517 kts 117°
2026-04-26 05:10 -10.28475 126.86607 38887 ft 517 kts 117°
2026-04-26 05:10 -10.31937 126.93010 38888 ft 517 kts 117°
2026-04-26 05:11 -10.35396 126.99412 38888 ft 518 kts 117°
2026-04-26 05:11 -10.38862 127.05830 38887 ft 518 kts 117°
2026-04-26 05:12 -10.42327 127.12251 38885 ft 519 kts 117°
2026-04-26 05:12 -10.45791 127.18679 38886 ft 519 kts 117°
2026-04-26 05:13 -10.49250 127.25112 38888 ft 519 kts 117°
2026-04-26 05:13 -10.52715 127.31553 38886 ft 520 kts 117°
2026-04-26 05:14 -10.56181 127.38005 38884 ft 520 kts 117°
2026-04-26 05:14 -10.59648 127.44458 38889 ft 520 kts 117°
2026-04-26 05:15 -10.63108 127.50905 38891 ft 519 kts 117°
2026-04-26 05:15 -10.66565 127.57350 38888 ft 519 kts 117°
2026-04-26 05:16 -10.70019 127.63793 38889 ft 519 kts 117°
2026-04-26 05:16 -10.73476 127.70244 38885 ft 520 kts 117°
2026-04-26 05:17 -10.76933 127.76701 38887 ft 520 kts 117°
2026-04-26 05:17 -10.80389 127.83160 38886 ft 520 kts 117°
2026-04-26 05:18 -10.83849 127.89629 38887 ft 521 kts 117°
2026-04-26 05:18 -10.87286 127.96061 38888 ft 520 kts 117°
2026-04-26 05:19 -10.90734 128.02515 38884 ft 520 kts 117°
2026-04-26 05:19 -10.94185 128.08980 38886 ft 519 kts 117°
2026-04-26 05:20 -10.97625 128.15429 38889 ft 518 kts 117°
2026-04-26 05:20 -11.01064 128.21880 38883 ft 518 kts 117°
2026-04-26 05:21 -11.04504 128.28337 38884 ft 520 kts 117°
2026-04-26 05:21 -11.07945 128.34799 38885 ft 519 kts 118°
2026-04-26 05:22 -11.11384 128.41262 38887 ft 519 kts 117°
2026-04-26 05:22 -11.14826 128.47733 38890 ft 520 kts 117°
2026-04-26 05:23 -11.18274 128.54222 38890 ft 522 kts 118°
2026-04-26 05:23 -11.21730 128.60730 38891 ft 523 kts 118°
2026-04-26 05:24 -11.25167 128.67205 38888 ft 523 kts 118°
2026-04-26 05:24 -11.28625 128.73726 38886 ft 524 kts 118°
2026-04-26 05:25 -11.32083 128.80252 38890 ft 523 kts 118°
2026-04-26 05:25 -11.35538 128.86776 38887 ft 523 kts 118°
2026-04-26 05:26 -11.38993 128.93303 38890 ft 523 kts 118°
2026-04-26 05:26 -11.42444 128.99829 38889 ft 523 kts 118°
2026-04-26 05:27 -11.45894 129.06355 38884 ft 523 kts 118°
2026-04-26 05:27 -11.49340 129.12881 38888 ft 523 kts 118°
2026-04-26 05:28 -11.52786 129.19409 38890 ft 523 kts 118°
2026-04-26 05:28 -11.56227 129.25934 38885 ft 523 kts 118°
2026-04-26 05:29 -11.59670 129.32464 38886 ft 522 kts 118°
2026-04-26 05:29 -11.63106 129.38987 38886 ft 522 kts 119°
2026-04-26 05:30 -11.66543 129.45516 38884 ft 522 kts 119°
2026-04-26 05:30 -11.69979 129.52047 38888 ft 522 kts 119°
2026-04-26 05:31 -11.73387 129.58529 38885 ft 522 kts 119°
2026-04-26 05:31 -11.76811 129.65048 38888 ft 521 kts 119°
2026-04-26 05:32 -11.80232 129.71564 38886 ft 521 kts 119°
2026-04-26 05:32 -11.83656 129.78090 38888 ft 522 kts 119°
2026-04-26 05:33 -11.87081 129.84623 38889 ft 522 kts 119°
2026-04-26 05:33 -11.90509 129.91168 38885 ft 523 kts 119°
2026-04-26 05:34 -11.93934 129.97711 38890 ft 522 kts 119°
2026-04-26 05:34 -11.97357 130.04254 38890 ft 522 kts 119°
2026-04-26 05:35 -12.00779 130.10799 38889 ft 522 kts 119°
2026-04-26 05:35 -12.04195 130.17338 38884 ft 522 kts 119°
2026-04-26 05:36 -12.07610 130.23879 38886 ft 522 kts 119°
2026-04-26 05:36 -12.11021 130.30417 38890 ft 521 kts 119°
2026-04-26 05:37 -12.14435 130.36965 38891 ft 522 kts 119°
2026-04-26 05:37 -12.17852 130.43525 38892 ft 523 kts 119°
2026-04-26 05:38 -12.21275 130.50100 38893 ft 524 kts 119°
2026-04-26 05:38 -12.24700 130.56684 38892 ft 525 kts 119°
2026-04-26 05:39 -12.28126 130.63274 38889 ft 525 kts 119°
2026-04-26 05:39 -12.31548 130.69863 38893 ft 525 kts 119°
2026-04-26 05:40 -12.34969 130.76452 38896 ft 524 kts 119°
2026-04-26 05:40 -12.38390 130.83047 38895 ft 525 kts 119°
2026-04-26 05:41 -12.41808 130.89658 38895 ft 526 kts 117°
2026-04-26 05:41 -12.44343 130.96630 38897 ft 527 kts 110°
2026-04-26 05:42 -12.46697 131.03737 38889 ft 528 kts 110°
2026-04-26 05:42 -12.49083 131.10839 38890 ft 528 kts 110°
2026-04-26 05:43 -12.51446 131.17952 38892 ft 528 kts 110°
2026-04-26 05:43 -12.53820 131.25061 38884 ft 528 kts 110°
2026-04-26 05:44 -12.56182 131.32166 38880 ft 527 kts 110°
2026-04-26 05:44 -12.58546 131.39268 38878 ft 527 kts 110°
2026-04-26 05:45 -12.60908 131.46380 38882 ft 528 kts 110°
2026-04-26 05:45 -12.63267 131.53487 38878 ft 527 kts 110°
2026-04-26 05:46 -12.65623 131.60592 38882 ft 527 kts 110°
2026-04-26 05:46 -12.67979 131.67704 38874 ft 528 kts 110°
2026-04-26 05:47 -12.70339 131.74837 38878 ft 529 kts 110°
2026-04-26 05:47 -12.72699 131.81976 38881 ft 529 kts 110°
2026-04-26 05:48 -12.75057 131.89114 38876 ft 529 kts 110°
2026-04-26 05:48 -12.77415 131.96261 38881 ft 529 kts 110°
2026-04-26 05:49 -12.80952 132.06994 38878 ft 530 kts 110°
2026-04-26 05:50 -12.83304 132.14141 38875 ft 529 kts 110°
2026-04-26 05:50 -12.85946 132.21160 38899 ft 527 kts 122°
2026-04-26 05:51 -12.89679 132.27642 38868 ft 529 kts 122°
2026-04-26 05:51 -12.93417 132.34122 38869 ft 527 kts 122°
2026-04-26 05:52 -12.97138 132.40589 38867 ft 527 kts 122°
2026-04-26 05:52 -13.00848 132.47027 38869 ft 528 kts 122°
2026-04-26 05:53 -13.03973 132.52468 38873 ft 529 kts 122°
2026-04-26 05:53 -13.08318 132.60022 38873 ft 529 kts 122°
2026-04-26 05:54 -13.12055 132.66532 38879 ft 530 kts 122°
2026-04-26 05:54 -13.15796 132.73050 38882 ft 530 kts 122°
2026-04-26 05:55 -13.18904 132.78470 38886 ft 530 kts 122°
2026-04-26 05:55 -13.22644 132.84996 38894 ft 531 kts 122°
2026-04-26 05:56 -13.26385 132.91529 38899 ft 531 kts 122°
2026-04-26 05:56 -13.30126 132.98066 38900 ft 531 kts 122°
2026-04-26 05:57 -13.33863 133.04601 38907 ft 530 kts 122°
2026-04-26 05:57 -13.37595 133.11134 38909 ft 531 kts 122°
2026-04-26 05:58 -13.41329 133.17674 38911 ft 531 kts 122°
2026-04-26 05:58 -13.45063 133.24219 38916 ft 531 kts 122°
2026-04-26 05:59 -13.48794 133.30766 38919 ft 531 kts 122°
2026-04-26 05:59 -13.52525 133.37316 38920 ft 531 kts 122°
2026-04-26 06:00 -13.56256 133.43872 38921 ft 531 kts 122°
2026-04-26 06:00 -13.59986 133.50431 38920 ft 532 kts 122°
2026-04-26 06:01 -13.63719 133.57000 38920 ft 533 kts 122°
2026-04-26 06:01 -13.67454 133.63578 38921 ft 533 kts 122°
2026-04-26 06:02 -13.71190 133.70163 38920 ft 533 kts 122°
2026-04-26 06:02 -13.74921 133.76745 38913 ft 533 kts 122°
2026-04-26 06:03 -13.78653 133.83333 38915 ft 533 kts 122°
2026-04-26 06:03 -13.82364 133.89889 38918 ft 534 kts 122°
2026-04-26 06:04 -13.86123 133.96535 38913 ft 534 kts 122°
2026-04-26 06:04 -13.89854 134.03138 38913 ft 534 kts 122°
2026-04-26 06:05 -13.93584 134.09744 38912 ft 534 kts 122°
2026-04-26 06:05 -13.97291 134.16315 38914 ft 534 kts 122°
2026-04-26 06:06 -14.01019 134.22927 38913 ft 534 kts 122°
2026-04-26 06:06 -14.04751 134.29551 38916 ft 535 kts 122°
2026-04-26 06:07 -14.08481 134.36178 38918 ft 535 kts 123°
2026-04-26 06:07 -14.12215 134.42817 38918 ft 535 kts 122°
2026-04-26 06:08 -14.15946 134.49457 38918 ft 536 kts 123°
2026-04-26 06:08 -14.19680 134.56109 38923 ft 536 kts 123°
2026-04-26 06:09 -14.23415 134.62765 38919 ft 537 kts 123°
2026-04-26 06:09 -14.27148 134.69424 38925 ft 537 kts 123°
2026-04-26 06:10 -14.30862 134.76056 38924 ft 537 kts 123°
2026-04-26 06:10 -14.34596 134.82729 38929 ft 537 kts 123°
2026-04-26 06:11 -14.38335 134.89414 38928 ft 539 kts 123°
2026-04-26 06:11 -14.42076 134.96112 38930 ft 539 kts 123°
2026-04-26 06:12 -14.45823 135.02824 38930 ft 540 kts 123°
2026-04-26 06:12 -14.49571 135.09543 38931 ft 540 kts 123°
2026-04-26 06:13 -14.53318 135.16267 38934 ft 541 kts 123°
2026-04-26 06:13 -14.57064 135.22994 38936 ft 541 kts 123°
2026-04-26 06:14 -14.60812 135.29732 38937 ft 541 kts 123°
2026-04-26 06:14 -14.64560 135.36474 38938 ft 541 kts 123°
2026-04-26 06:15 -14.68304 135.43216 38939 ft 541 kts 123°
2026-04-26 06:15 -14.72048 135.49962 38938 ft 542 kts 123°
2026-04-26 06:16 -14.75793 135.56719 38941 ft 542 kts 123°
2026-04-26 06:16 -14.79538 135.63479 38945 ft 542 kts 123°
2026-04-26 06:17 -14.83280 135.70240 38943 ft 542 kts 123°
2026-04-26 06:17 -14.87014 135.76993 38939 ft 541 kts 123°
2026-04-26 06:18 -14.90746 135.83748 38946 ft 541 kts 123°
2026-04-26 06:18 -14.94475 135.90503 38947 ft 541 kts 123°
2026-04-26 06:19 -14.98203 135.97263 38946 ft 541 kts 123°
2026-04-26 06:19 -15.01905 136.03982 38948 ft 541 kts 123°
2026-04-26 06:20 -15.05655 136.10793 38946 ft 541 kts 123°
2026-04-26 06:20 -15.09356 136.17521 38945 ft 542 kts 123°
2026-04-26 06:21 -15.13082 136.24301 38946 ft 542 kts 123°
2026-04-26 06:21 -15.16801 136.31075 38945 ft 541 kts 123°
2026-04-26 06:22 -15.20512 136.37840 38947 ft 540 kts 123°
2026-04-26 06:22 -15.24218 136.44600 38948 ft 540 kts 123°
2026-04-26 06:23 -15.27927 136.51373 38945 ft 541 kts 122°
2026-04-26 06:23 -15.31639 136.58159 38946 ft 542 kts 122°
2026-04-26 06:24 -15.35349 136.64947 38950 ft 541 kts 123°
2026-04-26 06:24 -15.39054 136.71732 38944 ft 541 kts 123°
2026-04-26 06:25 -15.42755 136.78517 38945 ft 541 kts 123°
2026-04-26 06:25 -15.46460 136.85316 38949 ft 542 kts 123°
2026-04-26 06:26 -15.50163 136.92117 38948 ft 542 kts 123°
2026-04-26 06:26 -15.53867 136.98926 38949 ft 542 kts 123°
2026-04-26 06:27 -15.57570 137.05740 38947 ft 543 kts 123°
2026-04-26 06:27 -15.61273 137.12560 38950 ft 543 kts 123°
2026-04-26 06:28 -15.64974 137.19382 38944 ft 543 kts 123°
2026-04-26 06:28 -15.68675 137.26213 38949 ft 543 kts 123°
2026-04-26 06:29 -15.72373 137.33043 38948 ft 543 kts 123°
2026-04-26 06:29 -15.76072 137.39879 38951 ft 543 kts 123°
2026-04-26 06:30 -15.79765 137.46713 38949 ft 543 kts 123°
2026-04-26 06:30 -15.83459 137.53555 38951 ft 544 kts 123°
2026-04-26 06:31 -15.87154 137.60406 38949 ft 544 kts 123°
2026-04-26 06:31 -15.90852 137.67268 38944 ft 544 kts 123°
2026-04-26 06:32 -15.94521 137.74083 38950 ft 544 kts 123°
2026-04-26 06:32 -15.98217 137.80955 38953 ft 545 kts 123°
2026-04-26 06:33 -16.01915 137.87836 38953 ft 545 kts 123°
2026-04-26 06:33 -16.05614 137.94726 38950 ft 546 kts 123°
2026-04-26 06:34 -16.09311 138.01620 38955 ft 546 kts 123°
2026-04-26 06:34 -16.13006 138.08517 38954 ft 546 kts 123°
2026-04-26 06:35 -16.16706 138.15430 38960 ft 547 kts 123°
2026-04-26 06:35 -16.20404 138.22345 38956 ft 547 kts 123°
2026-04-26 06:36 -16.24102 138.29268 38958 ft 547 kts 123°
2026-04-26 06:36 -16.27799 138.36194 38958 ft 548 kts 123°
2026-04-26 06:37 -16.31497 138.43131 38958 ft 548 kts 123°
2026-04-26 06:37 -16.35200 138.50082 38958 ft 549 kts 123°
2026-04-26 06:38 -16.38902 138.57039 38961 ft 549 kts 123°
2026-04-26 06:38 -16.42606 138.64007 38965 ft 550 kts 123°
2026-04-26 06:39 -16.46310 138.70983 38952 ft 550 kts 123°
2026-04-26 06:39 -16.50010 138.77957 38949 ft 550 kts 123°
2026-04-26 06:40 -16.53679 138.84880 38948 ft 549 kts 123°
2026-04-26 06:40 -16.57370 138.91851 38959 ft 550 kts 123°
2026-04-26 06:41 -16.61064 138.98835 38958 ft 550 kts 123°
2026-04-26 06:41 -16.64762 139.05833 38962 ft 551 kts 123°
2026-04-26 06:42 -16.68458 139.12837 38957 ft 551 kts 123°
2026-04-26 06:42 -16.72155 139.19848 38968 ft 552 kts 123°
2026-04-26 06:43 -16.75856 139.26873 38963 ft 552 kts 123°
2026-04-26 06:43 -16.79555 139.33903 38963 ft 553 kts 123°
2026-04-26 06:44 -16.82629 139.39751 38968 ft 553 kts 123°
2026-04-26 06:44 -16.86328 139.46794 38967 ft 553 kts 123°
2026-04-26 06:45 -16.90028 139.53846 38967 ft 554 kts 123°
2026-04-26 06:45 -16.93726 139.60901 38967 ft 554 kts 123°
2026-04-26 06:46 -16.97425 139.67965 38965 ft 554 kts 123°
2026-04-26 06:46 -17.01121 139.75034 38967 ft 554 kts 123°
2026-04-26 06:47 -17.04816 139.82106 38964 ft 555 kts 123°
2026-04-26 06:47 -17.08512 139.89187 38966 ft 555 kts 123°
2026-04-26 06:48 -17.12208 139.96275 38967 ft 555 kts 123°
2026-04-26 06:48 -17.15901 140.03368 38961 ft 556 kts 123°
2026-04-26 06:49 -17.19597 140.10471 38962 ft 556 kts 123°
2026-04-26 06:49 -17.23289 140.17575 38961 ft 556 kts 123°
2026-04-26 06:50 -17.26981 140.24689 38955 ft 557 kts 123°
2026-04-26 06:50 -17.30674 140.31809 38957 ft 557 kts 123°
2026-04-26 06:51 -17.34367 140.38938 38955 ft 557 kts 123°
2026-04-26 06:51 -17.39883 140.49602 38953 ft 558 kts 123°
2026-04-26 06:52 -17.43578 140.56753 38953 ft 558 kts 123°
2026-04-26 06:52 -17.47271 140.63911 38946 ft 559 kts 123°
2026-04-26 06:53 -17.50967 140.71081 38950 ft 560 kts 123°
2026-04-26 06:53 -17.54668 140.78267 38945 ft 561 kts 123°
2026-04-26 06:54 -17.58366 140.85458 38935 ft 561 kts 123°
2026-04-26 06:54 -17.62064 140.92655 38942 ft 561 kts 123°
2026-04-26 06:55 -17.65764 140.99867 38946 ft 562 kts 123°
2026-04-26 06:55 -17.69389 141.07139 38967 ft 566 kts 116°
2026-04-26 06:56 -17.71838 141.15054 38949 ft 572 kts 110°
2026-04-26 06:56 -17.74135 141.23045 38946 ft 573 kts 111°
2026-04-26 06:57 -17.76461 141.31036 38948 ft 573 kts 110°
2026-04-26 06:57 -17.78751 141.38993 38947 ft 574 kts 110°
2026-04-26 06:58 -17.81071 141.47016 38950 ft 575 kts 110°
2026-04-26 06:58 -17.83379 141.55043 38947 ft 575 kts 110°
2026-04-26 06:59 -17.85689 141.63074 38951 ft 575 kts 110°
2026-04-26 06:59 -17.87998 141.71122 38953 ft 576 kts 110°
2026-04-26 07:00 -17.90307 141.79182 38952 ft 576 kts 110°
2026-04-26 07:00 -17.92613 141.87244 38951 ft 576 kts 110°
2026-04-26 07:01 -17.94915 141.95306 38950 ft 576 kts 110°
2026-04-26 07:01 -17.97212 142.03365 38946 ft 575 kts 110°
2026-04-26 07:02 -17.99504 142.11419 38949 ft 576 kts 110°
2026-04-26 07:02 -18.01796 142.19491 38954 ft 577 kts 110°
2026-04-26 07:03 -18.04088 142.27571 38952 ft 577 kts 110°
2026-04-26 07:03 -18.06374 142.35648 38946 ft 576 kts 110°
2026-04-26 07:04 -18.08656 142.43721 38949 ft 577 kts 110°
2026-04-26 07:04 -18.10938 142.51812 38953 ft 578 kts 110°
2026-04-26 07:05 -18.13219 142.59912 38955 ft 578 kts 110°
2026-04-26 07:05 -18.15484 142.67965 38951 ft 579 kts 110°
2026-04-26 07:06 -18.17763 142.76088 38956 ft 580 kts 110°
2026-04-26 07:06 -18.20042 142.84224 38957 ft 580 kts 110°
2026-04-26 07:07 -18.22319 142.92366 38957 ft 581 kts 110°
2026-04-26 07:07 -18.24594 143.00518 38953 ft 581 kts 110°
2026-04-26 07:08 -18.26870 143.08684 38953 ft 582 kts 110°
2026-04-26 07:08 -18.29143 143.16855 38959 ft 582 kts 110°
2026-04-26 07:09 -18.31451 143.25020 38975 ft 579 kts 115°
2026-04-26 07:09 -18.35005 143.32532 38961 ft 573 kts 124°
2026-04-26 07:11 -18.44601 143.50940 38972 ft 573 kts 124°
2026-04-26 07:11 -18.48433 143.58305 38978 ft 574 kts 124°
2026-04-26 07:12 -18.52259 143.65682 38979 ft 574 kts 124°
2026-04-26 07:12 -18.56093 143.73072 38986 ft 575 kts 124°
2026-04-26 07:13 -18.59925 143.80476 38994 ft 576 kts 124°
2026-04-26 07:13 -18.63762 143.87893 38984 ft 576 kts 124°
2026-04-26 07:14 -18.67596 143.95316 38999 ft 577 kts 124°
2026-04-26 07:14 -18.71410 144.02707 39004 ft 578 kts 124°
2026-04-26 07:15 -18.75250 144.10159 39000 ft 579 kts 124°
2026-04-26 07:15 -18.79093 144.17626 39011 ft 579 kts 124°
2026-04-26 07:16 -18.82936 144.25101 39006 ft 580 kts 124°
2026-04-26 07:16 -18.86786 144.32598 39011 ft 582 kts 124°
2026-04-26 07:17 -18.90640 144.40117 39008 ft 583 kts 124°
2026-04-26 07:17 -18.94496 144.47644 39011 ft 583 kts 124°
2026-04-26 07:18 -18.98352 144.55183 39010 ft 583 kts 124°
2026-04-26 07:18 -19.02209 144.62732 39011 ft 584 kts 124°
2026-04-26 07:19 -19.06063 144.70286 39017 ft 584 kts 124°
2026-04-26 07:19 -19.09917 144.77848 39018 ft 585 kts 124°
2026-04-26 07:20 -19.13772 144.85425 39017 ft 585 kts 124°
2026-04-26 07:20 -19.17626 144.93005 39012 ft 585 kts 124°
2026-04-26 07:21 -19.21480 145.00597 39015 ft 586 kts 124°
2026-04-26 07:21 -19.25335 145.08201 39016 ft 587 kts 124°
2026-04-26 07:22 -19.29190 145.15815 39006 ft 587 kts 124°
2026-04-26 07:22 -19.33044 145.23436 39009 ft 588 kts 124°
2026-04-26 07:23 -19.36897 145.31066 39013 ft 588 kts 124°
2026-04-26 07:23 -19.40723 145.38650 39011 ft 588 kts 124°
2026-04-26 07:24 -19.44574 145.46296 39016 ft 588 kts 123°
2026-04-26 07:24 -19.48424 145.53948 39015 ft 589 kts 123°
2026-04-26 07:25 -19.52275 145.61613 39012 ft 590 kts 123°
2026-04-26 07:25 -19.56129 145.69295 39018 ft 590 kts 123°
2026-04-26 07:26 -19.59980 145.76979 39008 ft 590 kts 123°
2026-04-26 07:26 -19.63822 145.84658 39015 ft 589 kts 123°
2026-04-26 07:27 -19.67669 145.92353 39013 ft 591 kts 123°
2026-04-26 07:27 -19.71516 146.00065 39019 ft 591 kts 123°
2026-04-26 07:28 -19.75364 146.07782 39018 ft 591 kts 123°
2026-04-26 07:28 -19.79203 146.15497 39022 ft 591 kts 123°
2026-04-26 07:29 -19.83045 146.23224 39021 ft 591 kts 123°
2026-04-26 07:29 -19.86879 146.30948 39022 ft 591 kts 123°
2026-04-26 07:30 -19.90712 146.38680 39020 ft 591 kts 123°
2026-04-26 07:30 -19.94547 146.46426 39017 ft 592 kts 123°
2026-04-26 07:31 -19.98381 146.54180 39021 ft 593 kts 123°
2026-04-26 07:31 -20.02189 146.61895 39017 ft 593 kts 123°
2026-04-26 07:32 -20.06021 146.69666 39022 ft 593 kts 123°
2026-04-26 07:32 -20.09849 146.77441 39022 ft 594 kts 123°
2026-04-26 07:33 -20.13679 146.85229 39021 ft 594 kts 123°
2026-04-26 07:33 -20.17510 146.93032 39024 ft 595 kts 123°
2026-04-26 07:34 -20.20719 146.99576 39020 ft 596 kts 123°
2026-04-26 07:34 -20.24553 147.07404 39014 ft 597 kts 123°
2026-04-26 07:35 -20.28389 147.15248 39004 ft 597 kts 122°
2026-04-26 07:35 -20.32201 147.23051 39005 ft 598 kts 122°
2026-04-26 07:36 -20.36036 147.30917 39005 ft 598 kts 122°
2026-04-26 07:36 -20.39875 147.38798 39011 ft 599 kts 122°
2026-04-26 07:37 -20.43713 147.46691 39013 ft 600 kts 122°
2026-04-26 07:37 -20.47552 147.54596 39012 ft 600 kts 122°
2026-04-26 07:38 -20.51385 147.62500 39013 ft 600 kts 122°
2026-04-26 07:38 -20.55217 147.70414 39016 ft 600 kts 122°
2026-04-26 07:39 -20.59392 147.78053 39035 ft 589 kts 136°
2026-04-26 07:39 -20.62111 147.81266 39037 ft 578 kts 146°
2026-04-26 07:39 -20.65102 147.84114 39020 ft 576 kts 147°
2026-04-26 07:40 -20.71128 147.89736 39023 ft 575 kts 147°
2026-04-26 07:40 -20.77138 147.95385 39021 ft 576 kts 147°
2026-04-26 07:41 -20.83156 148.01028 39023 ft 576 kts 147°
2026-04-26 07:41 -20.89172 148.06685 39028 ft 576 kts 147°
2026-04-26 07:42 -20.95184 148.12342 39032 ft 576 kts 147°
2026-04-26 07:42 -21.01204 148.18011 39034 ft 577 kts 147°
2026-04-26 07:43 -21.07221 148.23688 39040 ft 577 kts 147°
2026-04-26 07:43 -21.13246 148.29373 39042 ft 577 kts 146°
2026-04-26 07:44 -21.19261 148.35060 39053 ft 577 kts 146°
2026-04-26 07:44 -21.25281 148.40756 39048 ft 577 kts 146°
2026-04-26 07:45 -21.31301 148.46459 39053 ft 576 kts 146°
2026-04-26 07:45 -21.37310 148.52157 39054 ft 576 kts 146°
2026-04-26 07:46 -21.43302 148.57847 39051 ft 574 kts 146°
2026-04-26 07:46 -21.49288 148.63536 39054 ft 575 kts 146°
2026-04-26 07:47 -21.55276 148.69236 39054 ft 575 kts 146°
2026-04-26 07:47 -21.61267 148.74943 39055 ft 575 kts 146°
2026-04-26 07:48 -21.67243 148.80644 39055 ft 574 kts 146°
2026-04-26 07:48 -21.73212 148.86343 39057 ft 574 kts 145°
2026-04-26 07:49 -21.79179 148.92049 39056 ft 573 kts 145°
2026-04-26 07:49 -21.85133 148.97746 39056 ft 572 kts 145°
2026-04-26 07:50 -21.94041 149.06286 39055 ft 571 kts 145°
2026-04-26 07:50 -21.99968 149.11975 39058 ft 570 kts 144°
2026-04-26 07:51 -22.05891 149.17668 39051 ft 568 kts 144°
2026-04-26 07:51 -22.11735 149.23295 38231 ft 560 kts 144°
2026-04-26 07:52 -22.14654 149.26097 37375 ft 564 kts 144°
2026-04-26 07:52 -22.17580 149.28915 36483 ft 562 kts 143°
2026-04-26 07:52 -22.20456 149.31700 35555 ft 550 kts 143°
2026-04-26 07:52 -22.23273 149.34422 34623 ft 538 kts 142°
2026-04-26 07:53 -22.26041 149.37086 33626 ft 530 kts 142°
2026-04-26 07:53 -22.28774 149.39720 32645 ft 523 kts 142°
2026-04-26 07:53 -22.31429 149.42290 31687 ft 517 kts 142°
2026-04-26 07:53 -22.34089 149.44865 30738 ft 510 kts 142°
2026-04-26 07:54 -22.36753 149.47440 29744 ft 505 kts 142°
2026-04-26 07:54 -22.39313 149.49915 28841 ft 496 kts 142°
2026-04-26 07:54 -22.41855 149.52378 27944 ft 487 kts 142°
2026-04-26 07:54 -22.44353 149.54800 27065 ft 478 kts 142°
2026-04-26 07:55 -22.46808 149.57179 26202 ft 470 kts 142°
2026-04-26 07:55 -22.49221 149.59518 25352 ft 462 kts 142°
2026-04-26 07:55 -22.51620 149.61858 24515 ft 455 kts 141°
2026-04-26 07:55 -22.53947 149.64135 23546 ft 449 kts 141°
2026-04-26 07:56 -22.56270 149.66400 22466 ft 446 kts 141°
2026-04-26 07:56 -22.58540 149.68616 21673 ft 434 kts 141°
2026-04-26 07:56 -22.60752 149.70779 20900 ft 423 kts 141°
2026-04-26 07:56 -22.62912 149.72890 20147 ft 413 kts 140°
2026-04-26 07:57 -22.64993 149.74924 19412 ft 404 kts 140°
2026-04-26 07:57 -22.67056 149.76941 18698 ft 397 kts 140°
2026-04-26 07:57 -22.69092 149.78933 17967 ft 393 kts 140°
2026-04-26 07:57 -22.71106 149.80905 17261 ft 388 kts 140°
2026-04-26 07:58 -22.73097 149.82855 16520 ft 384 kts 139°
2026-04-26 07:58 -22.75052 149.84772 15841 ft 374 kts 139°
2026-04-26 07:58 -22.76978 149.86658 15160 ft 373 kts 138°
2026-04-26 07:58 -22.78892 149.88532 14508 ft 368 kts 137°
2026-04-26 07:59 -22.80778 149.90383 13853 ft 364 kts 137°
2026-04-26 07:59 -22.82636 149.92210 13174 ft 357 kts 137°
2026-04-26 07:59 -22.84459 149.93999 12538 ft 350 kts 137°
2026-04-26 07:59 -22.86244 149.95753 11925 ft 343 kts 137°
2026-04-26 08:00 -22.88003 149.97480 11319 ft 339 kts 137°
2026-04-26 08:00 -22.89725 149.99173 10914 ft 327 kts 137°
2026-04-26 08:00 -22.91359 150.00779 10786 ft 307 kts 137°
2026-04-26 08:00 -22.92893 150.02287 10668 ft 288 kts 137°
2026-04-26 08:01 -22.94476 150.03496 10549 ft 272 kts 155°
2026-04-26 08:01 -22.96197 150.04257 10334 ft 266 kts 156°
2026-04-26 08:01 -22.97921 150.05022 10033 ft 268 kts 156°
2026-04-26 08:01 -22.99645 150.05782 9723 ft 268 kts 156°
2026-04-26 08:02 -23.01362 150.06537 9407 ft 264 kts 156°
2026-04-26 08:02 -23.03047 150.07280 9114 ft 259 kts 156°
2026-04-26 08:02 -23.04712 150.08014 8823 ft 259 kts 156°
2026-04-26 08:02 -23.06378 150.08749 8532 ft 258 kts 155°
2026-04-26 08:03 -23.08036 150.09482 8245 ft 256 kts 156°
2026-04-26 08:03 -23.09674 150.10204 7956 ft 252 kts 155°
2026-04-26 08:03 -23.11295 150.10919 7652 ft 250 kts 155°
2026-04-26 08:03 -23.12899 150.11627 7379 ft 250 kts 155°
2026-04-26 08:04 -23.14515 150.12343 7092 ft 250 kts 155°
2026-04-26 08:04 -23.16113 150.13048 6808 ft 246 kts 155°
2026-04-26 08:04 -23.17692 150.13745 6536 ft 246 kts 155°
2026-04-26 08:04 -23.19258 150.14471 6237 ft 243 kts 149°
2026-04-26 08:05 -23.20523 150.15654 6014 ft 238 kts 127°
2026-04-26 08:05 -23.21272 150.17250 6030 ft 241 kts 106°
2026-04-26 08:05 -23.21417 150.19064 6023 ft 243 kts 90°
2026-04-26 08:05 -23.21347 150.20910 5994 ft 247 kts 91°
2026-04-26 08:06 -23.21273 150.22787 5702 ft 247 kts 90°
2026-04-26 08:06 -23.21196 150.24620 5322 ft 241 kts 91°
2026-04-26 08:06 -23.21123 150.26434 4958 ft 238 kts 91°
2026-04-26 08:06 -23.21053 150.28224 4558 ft 237 kts 91°
2026-04-26 08:07 -23.20981 150.29988 4145 ft 229 kts 91°
2026-04-26 08:07 -23.20912 150.31665 3934 ft 211 kts 92°
2026-04-26 08:07 -23.20855 150.33176 3911 ft 189 kts 92°
2026-04-26 08:07 -23.20807 150.34570 3831 ft 186 kts 92°
2026-04-26 08:08 -23.20760 150.35971 3709 ft 185 kts 92°
2026-04-26 08:08 -23.20707 150.37369 3598 ft 183 kts 92°
2026-04-26 08:08 -23.20793 150.38719 3497 ft 174 kts 109°
2026-04-26 08:08 -23.21353 150.39809 3379 ft 165 kts 130°
2026-04-26 08:09 -23.22262 150.40557 3195 ft 166 kts 149°
2026-04-26 08:09 -23.23330 150.41045 2907 ft 168 kts 154°
2026-04-26 08:09 -23.24421 150.41508 2652 ft 168 kts 154°
2026-04-26 08:09 -23.25479 150.41971 2444 ft 157 kts 154°
2026-04-26 08:10 -23.26465 150.42407 2224 ft 152 kts 153°
2026-04-26 08:10 -23.27450 150.42846 2030 ft 151 kts 153°
2026-04-26 08:10 -23.28399 150.43268 1839 ft 147 kts 153°
2026-04-26 08:10 -23.29328 150.43681 1639 ft 146 kts 153°
2026-04-26 08:11 -23.30277 150.44103 1441 ft 141 kts 153°
2026-04-26 08:11 -23.31159 150.44493 1266 ft 135 kts 153°
2026-04-26 08:11 -23.32023 150.44879 1075 ft 132 kts 154°
2026-04-26 08:11 -23.32856 150.45249 903 ft 130 kts 155°
2026-04-26 08:12 -23.33717 150.45626 777 ft 136 kts 155°
2026-04-26 08:12 -23.34606 150.46023 619 ft 137 kts 156°
2026-04-26 08:12 -23.35462 150.46405 416 ft 129 kts 155°
2026-04-26 08:12 -23.36272 150.46768 238 ft 122 kts 156°
2026-04-26 08:13 -23.37039 150.47110 65 ft 116 kts 158°
2026-04-26 08:13 -23.37685 150.47395 46 ft 70 kts 156°
2026-04-26 08:13 -23.38021 150.47547 44 ft 48 kts 158°
2026-04-26 08:13 -23.38302 150.47673 45 ft 40 kts 158°
2026-04-26 08:14 -23.38537 150.47777 44 ft 34 kts 158°
2026-04-26 08:14 -23.38702 150.47855 41 ft 12 kts 135°
2026-04-26 08:14 -23.38705 150.47926 39 ft 12 kts 67°
2026-04-26 08:14 -23.38657 150.47998 43 ft 11 kts 19°
2026-04-26 08:15 -23.38572 150.47982 44 ft 15 kts 337°
2026-04-26 08:15 -23.38446 150.47927 42 ft 24 kts 337°
2026-04-26 08:15 -23.38277 150.47852 44 ft 23 kts 336°
2026-04-26 08:15 -23.38135 150.47788 44 ft 23 kts 338°
2026-04-26 08:16 -23.38004 150.47732 44 ft 11 kts 354°
2026-04-26 08:16 -23.37972 150.47756 44 ft 2 kts 83°
2026-04-26 08:16 -23.37977 150.47778 44 ft 5 kts 112°
2026-04-26 08:16 -23.37978 150.47811 45 ft 4 kts 60°
2026-04-26 08:17 -23.37953 150.47825 46 ft 3 kts
2026-04-26 08:17 -23.37948 150.47824 46 ft 0 kts 342°